Total_Precipitation_Accumulation
1.28 1.40 1.53 1.56 1.59 1.66 1.77 1.88 1.94 1.88 1.68 1.53 1.54 1.54 1.55 1.59 1.76 1.43 1.33 1.53 1.43 1.36 1.31 1.24 1.16 1.13 1.12 1.17 1.24 1.32 1.40 1.45 1.48 1.51 1.57 1.68 1.75 1.82
1.02 1.11 1.22 1.32 1.40 1.48 1.61 1.70 1.74 1.74 1.70 1.53 1.47 1.47 1.46 1.44 1.59 1.27 1.25 1.44 1.32 1.22 1.15 1.11 1.08 1.07 1.03 1.05 1.11 1.14 1.14 1.14 1.17 1.15 1.14 1.19 1.31 1.46
1.02 1.07 1.12 1.15 1.21 1.25 1.30 1.38 1.50 1.60 1.70 1.67 1.52 1.47 1.46 1.43 1.37 1.18 1.10 1.07 1.10 1.17 1.11 1.05 0.98 0.95 0.94 0.91 0.87 0.88 0.88 0.88 0.92 0.94 0.93 0.96 1.00 1.07
0.91 0.95 0.96 0.96 0.99 1.06 1.14 1.17 1.25 1.36 1.49 1.58 1.50 1.38 1.35 1.34 1.28 1.20 1.04 0.94 0.93 0.98 0.93 0.86 0.84 0.81 0.77 0.76 0.76 0.74 0.72 0.73 0.74 0.77 0.78 0.80 0.85 0.90
0.77 0.78 0.80 0.85 0.85 0.86 0.90 0.96 1.02 1.08 1.21 1.26 1.27 1.22 1.18 1.13 1.16 1.12 1.02 1.02 0.88 0.87 0.80 0.73 0.69 0.66 0.62 0.58 0.61 0.65 0.66 0.62 0.59 0.59 0.59 0.62 0.64 0.67
0.59 0.61 0.68 0.75 0.74 0.75 0.74 0.76 0.82 0.91 1.01 1.08 1.08 1.08 1.06 1.00 1.02 1.06 1.03 0.96 0.87 0.72 0.73 0.63 0.57 0.51 0.51 0.51 0.49 0.48 0.50 0.57 0.62 0.58 0.50 0.44 0.42 0.42
0.48 0.47 0.49 0.57 0.63 0.61 0.58 0.64 0.75 0.85 0.90 0.95 0.92 0.88 0.88 0.92 0.93 0.89 0.86 0.83 0.79 0.69 0.73 0.65 0.61 0.58 0.60 0.57 0.52 0.47 0.46 0.44 0.44 0.46 0.45 0.40 0.36 0.33
0.47 0.48 0.45 0.46 0.46 0.45 0.49 0.61 0.75 0.78 0.82 0.88 0.87 0.87 0.86 0.85 0.85 0.85 0.87 0.89 0.90 0.75 0.73 0.67 0.61 0.65 0.63 0.59 0.54 0.48 0.44 0.45 0.42 0.39 0.40 0.39 0.37 0.36
0.46 0.46 0.40 0.38 0.42 0.43 0.47 0.54 0.61 0.63 0.70 0.82 0.91 0.89 0.90 0.92 0.94 0.89 0.94 0.98 0.94 0.83 0.88 0.84 0.65 0.60 0.49 0.45 0.46 0.41 0.41 0.44 0.44 0.40 0.40 0.40 0.38 0.37
0.45 0.46 0.48 0.47 0.44 0.46 0.46 0.50 0.59 0.65 0.66 0.69 0.83 0.82 0.79 0.84 0.88 0.92 0.96 0.97 0.94 0.88 0.94 0.96 0.70 0.61 0.49 0.53 0.50 0.37 0.33 0.35 0.39 0.39 0.38 0.37 0.37 0.38
0.37 0.36 0.39 0.44 0.45 0.43 0.47 0.58 0.65 0.70 0.59 0.60 0.68 0.75 0.78 0.82 0.80 0.84 1.00 1.13 1.07 0.86 0.85 0.95 0.79 0.68 0.58 0.57 0.52 0.44 0.36 0.33 0.31 0.33 0.36 0.40 0.40 0.42
0.38 0.36 0.36 0.37 0.37 0.38 0.47 0.61 0.71 0.71 0.63 0.66 0.80 0.90 0.88 0.95 0.90 0.90 1.11 1.18 1.11 1.04 0.87 0.91 0.87 0.85 0.80 0.62 0.57 0.53 0.50 0.44 0.36 0.33 0.32 0.35 0.44 0.49
0.41 0.43 0.39 0.31 0.28 0.31 0.41 0.52 0.61 0.59 0.69 0.86 0.94 0.96 0.97 1.00 0.95 0.89 1.00 1.08 1.15 1.18 0.96 0.95 0.97 0.97 0.99 0.79 0.59 0.56 0.58 0.59 0.59 0.59 0.53 0.45 0.44 0.45
0.45 0.43 0.39 0.31 0.29 0.33 0.40 0.48 0.52 0.60 0.79 0.96 1.02 1.00 0.92 0.89 0.88 0.83 0.89 0.92 0.97 0.99 0.91 0.93 1.05 1.09 1.02 0.86 0.70 0.57 0.60 0.68 0.79 0.87 0.84 0.75 0.61 0.57
0.34 0.31 0.29 0.31 0.34 0.46 0.49 0.48 0.57 0.78 0.90 0.95 1.02 1.01 0.91 0.82 0.77 0.72 0.76 0.85 0.86 0.77 0.64 0.67 0.86 0.90 0.94 0.90 0.82 0.73 0.71 0.72 0.85 1.00 1.03 0.96 0.83 0.70
0.31 0.31 0.36 0.43 0.47 0.55 0.63 0.72 0.77 0.83 0.83 0.90 0.94 0.90 0.79 0.73 0.75 0.73 0.77 0.84 0.89 0.82 0.64 0.57 0.66 0.77 0.84 0.78 0.80 0.80 0.77 0.85 0.88 0.99 1.12 1.16 1.00 0.75
0.25 0.39 0.59 0.65 0.71 0.76 0.81 0.86 0.92 0.86 0.81 0.81 0.83 0.82 0.77 0.74 0.72 0.68 0.73 0.77 0.82 0.81 0.70 0.60 0.59 0.63 0.62 0.63 0.72 0.76 0.77 0.85 0.95 1.03 1.14 1.28 1.24 0.96
0.30 0.51 0.63 0.67 0.73 0.74 0.74 0.79 0.85 0.86 0.79 0.75 0.75 0.75 0.74 0.71 0.72 0.66 0.65 0.74 0.80 0.73 0.68 0.61 0.57 0.57 0.57 0.53 0.61 0.72 0.77 0.92 1.03 1.03 1.00 1.13 1.31 1.18
0.46 0.59 0.62 0.66 0.69 0.65 0.65 0.71 0.75 0.74 0.67 0.64 0.63 0.61 0.60 0.60 0.65 0.67 0.63 0.63 0.63 0.58 0.56 0.51 0.53 0.59 0.62 0.66 0.67 0.81 0.87 0.93 0.98 0.97 0.96 1.04 1.23 1.19
0.56 0.59 0.60 0.61 0.63 0.62 0.61 0.61 0.59 0.53 0.48 0.50 0.54 0.54 0.54 0.56 0.58 0.59 0.54 0.50 0.53 0.53 0.51 0.50 0.52 0.55 0.60 0.65 0.83 0.98 0.94 0.82 0.82 0.94 1.03 1.07 1.16 1.16
0.50 0.52 0.53 0.52 0.53 0.58 0.57 0.51 0.47 0.43 0.39 0.39 0.43 0.47 0.49 0.48 0.50 0.48 0.42 0.36 0.39 0.44 0.45 0.46 0.45 0.44 0.45 0.49 0.66 0.86 0.91 0.96 0.92 0.94 0.98 0.98 0.87 0.75
0.41 0.43 0.42 0.41 0.43 0.45 0.43 0.40 0.38 0.38 0.35 0.33 0.34 0.34 0.36 0.39 0.40 0.38 0.35 0.33 0.35 0.35 0.37 0.38 0.38 0.37 0.40 0.49 0.65 0.80 0.82 0.74 0.71 0.78 0.83 0.71 0.58 0.59
0.39 0.38 0.35 0.33 0.33 0.34 0.34 0.35 0.34 0.34 0.33 0.34 0.32 0.29 0.29 0.29 0.28 0.27 0.26 0.24 0.23 0.24 0.27 0.30 0.32 0.32 0.34 0.37 0.43 0.50 0.49 0.44 0.38 0.39 0.52 0.64 0.63 0.66